Location: Camaret
(48.2753°N, 4.5961°W)
Time: 12:14:49
(UTC+00:00)

X-37B - Pass Details

Date: 28 January 2021
Orbit: 383 x 391 km, 45.0° (Epoch: 27 February)

Event Time Altitude Azimuth Distance (km) Brightness Sun altitude
Rises 19:18:49 0° 272° (W) 2,275 6.0 -21.1°
Reaches altitude 10° 19:21:09 10° 257° (WSW) 1,419 4.5 -21.5°
Maximum altitude 19:23:45 23° 202° (SSW) 884 2.6 -21.9°
Enters shadow 19:23:54 23° 198° (SSW) 886 2.5 -22.0°
